www.pogodaiklimat.ru

Погода и климат >> Архив погоды >> Китай >> Цзяньси >> Гуанчан


ПОГОДА в Гуанчане

  • Прогноз погоды в Гуанчане
  • Монитор погоды в Гуанчане

АРХИВ ПОГОДЫ в Гуанчане

Время (UTC), дата Ветер
(напр.,м/с)
 
Видим.   Явления Облачность Т
(С)
Тd
(С)
f
(%)
Тe
(С)
Тes
(С)
Комфортность P
(гПа)
Po
(гПа)
Тmin
(С)
Tmax
(С)
R
(мм)
R24
(мм)
S
(см)
00 13.09 Ю 1 30 км 3/3 600 м
[]
+27.6 +23.2 77 +37 +40 очень
душно
1009.5 990.6
03 13.09 Ю 2 30 км 3/3 600 м
[]
+33.3 +23.0 55 +44 +55 опасность
перегрева
1008.9 993.0
06 13.09 В 2 30 км 4/4 600 м
[]
+35.8 +23.1 48 +46 +55 опасность
перегрева
1006.0 990.3 +24.1
09 13.09 В 7 30 км 9/9 1000 м
[]
+32.1 +23.6 61 +43 +43 опасность
перегрева
1006.2 990.3
12 13.09 З 1 29 км {дождь} 3/3
[]
+27.7 +25.3 87 +40 +40 очень
душно
1007.8 988.8 0.6
18 13.09 З 1 4200 м дымка ?/? +25.0 +24.1 95 +34 +34 очень
душно
1007.9 991.6 +36.7
21 13.09 штиль 0 7000 м н/о +24.1 +23.4 96 +32 +32 очень
душно
1008.4 992.1
00 14.09 ЮЗ 1 30 км 1/1
[]
+26.3 +24.0 87 +36 +40 очень
душно
1009.8 993.6
03 14.09 В 2 30 км 1/1 600 м
[]
+33.6 +23.3 55 +44 +59 опасность
перегрева
1008.9 993.1
06 14.09 В 3 30 км 3/3 600 м
[]
+36.9 +20.7 39 +43 +52 опасность
перегрева
1006.3 987.6 +23.8
09 14.09 СВ 3 30 км 6/6 600 м
[]
+33.7 +23.4 55 +44 +45 опасность
перегрева
1006.1 990.3
12 14.09 В 2 30 км 4/4
[]
+30.2 +22.9 65 +40 +40 очень
душно
1008.1 992.1
18 14.09 С 1 9000 м ?/? +25.0 +22.3 85 +33 +33 очень
душно
1008.4 989.6 +37.4
21 14.09 З 1 30 км н/о +23.8 +22.6 93 +31 +31 очень
душно
1008.8 992.4
00 15.09 Ю 1 30 км 3/3
[]
+26.1 +22.6 81 +34 +37 очень
душно
1010.3 994.0
03 15.09 Ю 1 18 км 8/8 600 м
[]
+32.3 +22.1 55 +41 +45 опасность
перегрева
1009.6 993.7
06 15.09 С 1 26 км 8/8 600 м
[]
+36.2 +22.0 44 +45 +48 опасность
перегрева
1006.5 990.8 +23.5
09 15.09 СВ 2 30 км 3/3 600 м
[]
+32.6 +22.4 55 +42 +43 опасность
перегрева
1006.2 990.4
12 15.09 В 2 30 км ясно +29.8 +22.8 66 +39 +39 очень
душно
1008.2 992.2
18 15.09 штиль 0 14 км ?/? +25.1 +23.7 92 +34 +34 очень
душно
1008.3 992.0 +36.2
21 15.09 З 1 13 км н/о +24.0 +23.0 94 +32 +32 очень
душно
1009.0 992.7
00 16.09 В 3 30 км 1/1 300 м
[]
+26.7 +23.8 84 +37 +39 очень
душно
1010.6 994.4
03 16.09 В 5 30 км 1/1 600 м
[]
+31.5 +23.1 61 +42 +49 опасность
перегрева
1010.0 994.0
06 16.09 В 6 30 км 3/3 600 м
[]
+34.1 +20.8 46 +41 +45 опасность
перегрева
1007.4 988.6 +23.5
09 16.09 В 5 30 км 3/3 600 м
[]
+33.2 +21.4 50 +41 +42 опасность
перегрева
1006.6 990.8
12 16.09 В 4 30 км 5/5
[]
+29.8 +22.5 65 +39 +39 очень
душно
1008.4 992.4
18 16.09 В 1 30 км ?/? +25.4 +22.1 82 +33 +33 очень
душно
1009.7 993.4 +34.5
21 16.09 СВ 2 30 км н/о +24.0 +21.1 84 +30 +30 очень
душно
1010.7 994.3
00 17.09 В 4 30 км 1/1
[]
+25.5 +20.7 75 +32 +34 очень
душно
1013.1 994.0
03 17.09 В 5 30 км ясно +30.5 +18.9 50 +36 +44 очень
душно
1012.5 996.4
06 17.09 В 6 30 км 3/3 600 м
[]
+33.3 +18.3 41 +38 +42 очень
душно
1009.4 993.5 +23.4
09 17.09 В 4 30 км 3/3 600 м
[]
+33.1 +18.8 43 +38 +39 очень
душно
1009.1 993.2
12 17.09 В 2 30 км ясно +28.8 +19.7 58 +35 +35 очень
душно
1012.0 992.9
18 17.09 штиль 0 30 км ?/? +24.6 +20.5 78 +31 +31 очень
душно
1012.8 996.4 +34.0
21 17.09 З 1 30 км н/о +22.6 +20.5 88 +29 +29 очень
душно
1013.6 997.1
00 18.09 ЮВ 2 30 км ясно +25.7 +19.1 67 +31 +34 очень
душно
1015.6 999.2
03 18.09 В 5 30 км ясно +29.6 +16.8 46 +33 +42 душно 1015.2 999.1
06 18.09 В 6 30 км 3/3 600 м
[]
+31.7 +16.8 41 +35 +39 очень
душно
1012.6 996.6 +22.2
09 18.09 В 6 30 км 6/6 600 м
[]
+30.8 +17.5 45 +35 +35 очень
душно
1012.9 996.9
12 18.09 В 2 30 км 6/6
[]
+27.1 +17.9 57 +32 +32 очень
душно
1014.8 998.5
18 18.09 штиль 0 30 км ?/? +21.6 +16.6 73 +25 +25 комфорт 1015.1 998.5 +32.4
21 18.09 штиль 0 30 км н/о +20.3 +15.7 75 +23 +23 комфорт 1015.6 998.9
00 19.09 В 1 30 км ясно +23.2 +14.8 59 +27 +31 душно 1017.1 1000.6
03 19.09 В 5 30 км ясно +28.4 +11.5 35 +29 +38 жарко 1015.5 999.3
06 19.09 Ю 5 30 км ясно +31.2 +11.6 30 +32 +39 жарко 1012.0 992.9 +19.7
09 19.09 СВ 5 30 км ясно +30.3 +12.2 33 +31 +32 жарко 1011.8 995.7
12 19.09 В 2 30 км ясно +25.7 +12.9 45 +28 +28 жарко 1013.5 997.2
18 19.09 З 1 30 км ?/? +18.5 +15.6 83 +20 +20 1012.5 995.8 +31.6
21 19.09 З 1 30 км н/о +16.5 +15.2 92 +17 +17 1012.6 995.8

 

Местоположение метеостанции Гуанчан (Цзяньси, Китай): широта 26.85 долгота 116.33 высота над уровнем моря 142 м.

В архиве по умолчанию представлена погода в Гуанчане за последнюю неделю. Архивные данные за месяц целиком и за предыдущие месяцы, начиная с января 2011 года, Вы можете получить, выбрав интересующий диапазон дат из раскрывающегося списка и нажав кнопку "Ввод!".


*Определитесь, кто Вы:
робот инопланетянин человек

Внимание! Время в таблицах - всемирное. Для получения местного времени необходимо прибавить поправку, которая равна 8 ч.

Смотрите также архив погоды в соседних городах и на ближайших метеорологических станциях:

Погода в Наньчене (Цзяньси, Китай) (87 км)
Погода в Чантине (Фуцзянь, Китай) (111 км)
Погода в Шаову (Фуцзянь, Китай) (124 км)
Погода в Цзиане (Цзяньси, Китай) (139 км)
Погода в Йонъяне (Фуцзянь, Китай) (141 км)
Погода в Наньпине (Фуцзянь, Китай) (168 км)
Погода в Ганьчжоу (Цзяньси, Китай) (172 км)
Погода в Уишане (Фуцзянь, Китай) (197 км)
Погода в Наньчане (Цзяньси, Китай) (199 км)
Погода в Чжанпине (Фуцзянь, Китай) (203 км)

Пояснения к столбцам:

Ветер - указаны скорость ветра в м/с - средняя за 10 мин, порывы в срок и между сроками (в фигурных скобках) и направление, откуда дует ветер: С - северный, СВ - северо-восточный, В - восточный, ЮВ - юго-восточный, Ю - южный, ЮЗ - юго-западный, З - западный, СЗ - северо-западный.
Видимость - горизонтальная дальность видимости в метрах или километрах. При видимости от 1 до 10 км при отсутствии осадков обычно наблюдается дымка, при ухудшении видимости до 1 км и менее - туман. В сухую погоду видимость может ухудшаться дымом, пылью или мглою.
Явления - указаны атмосферные явления, наблюдавшиеся в срок или в последний час перед сроком; фигурными скобками обозначены явления, наблюдавшиеся между сроками (за 1-3 часа до срока); квадратными скобками обозначены град или гололедные отложения с указанием их диаметра в мм.
Облачность - указаны через наклонную черту общая и нижняя облачность в баллах и высота нижней границы облаков в метрах; квадратными скобками обозначены формы облаков: Ci - перистые, Cs - перисто-слоистые, Cc - перисто-кучевые, Ac - высококучевые, As - высокослоистые, Sc - слоисто-кучевые, Ns - слоисто-дождевые, Cu - кучевые, Cb - кучево-дождевые. Подробнее классификацию облаков см. в Атласе облаков (PDF).
T - Температура воздуха - температура, измеренная на высоте 2 м над землей.
Td - Температура точки росы - температура, при понижении до которой содержащийся в воздухе водяной пар достигнет насыщения.
f - Относительная влажность воздуха - влажноcть воздуха, измеренная на высоте 2 м над землей.
Te - Эффективная температура - температура, которую ощущает одетый по сезону человек в тени. Характеристика душности погоды. При расчете учитывается влияние влажности воздуха и скорости ветра на теплоощущения человека.
Tes - Эффективная температура на солнце - температура, которую ощущает человек, с поправкой на солнечный нагрев. Характеристика знойности погоды. Зависит от высоты солнца над горизонтом, облачности и скорости ветра. Ночью, в пасмурную погоду, а также при ветре 12 м/с и более поправка равна нулю.
P - Атмосферное давление - приведенное к уровню моря атмосферное давление.
Po - Атмосферное давление - измеренное на уровне метеостанции атмосферное давление.
Tmin - Минимальная температура - минимум температуры воздуха на высоте 2 м над землей.
Tmax - Максимальная температура - максимум температуры воздуха на высоте 2 м над землей.
R - Количество осадков - Количество выпавших осадков за период времени, мм. При наведении курсора мыши на число - период времени, за который выпало указанное количество осадков.
R24 - Количество осадков - Количество выпавших осадков за 24 часа, мм.
S - Снежный покров - Высота снежного покрова, см. При наведении курсора мыши на число - состояние снежного покрова и степень покрытия местности в баллах.